Temperature
21 20 20 20 26 28 28 27 28 27 27 26 25 25 25 25 25 23 20 19 19 19 18 19 19 19 19 19 18 18 18 18 18 18 18 18 18 18 18 18 18 18 18 18 18 18 18 18 18
20 20 20 24 29 28 27 28 27 27 26 25 25 25 25 23 22 20 19 19 19 19 18 18 19 19 19 18 18 18 18 18 18 18 18 18 18 18 18 18 18 18 18 18 18 18 18 18 18
20 20 24 29 29 28 28 28 27 27 25 25 25 24 24 22 21 20 19 19 19 19 18 18 19 18 18 18 18 18 18 18 18 18 18 18 18 18 18 18 18 18 18 18 18 18 18 18 18
21 23 26 30 29 29 28 28 28 27 26 25 25 24 22 20 20 20 19 19 19 18 18 18 18 18 18 18 18 18 18 18 18 18 18 18 18 18 18 18 18 18 18 18 18 18 18 18 18
22 27 30 30 29 29 29 28 28 28 27 26 25 24 22 20 19 19 19 19 19 19 18 18 18 18 18 18 18 18 18 18 18 18 18 18 18 18 18 18 18 18 18 18 18 18 18 18 18
27 30 30 29 29 29 29 28 28 28 27 25 25 24 22 20 19 19 19 19 19 19 18 18 18 18 18 18 18 18 18 18 18 18 18 18 18 18 18 18 18 18 18 18 18 18 18 18 18
28 30 30 30 29 29 29 28 28 28 27 26 25 24 22 20 19 19 19 19 19 18 18 18 18 18 18 18 18 18 18 18 18 18 18 18 18 18 18 18 18 18 18 18 18 18 18 18 18
28 31 31 30 30 29 29 28 27 27 27 25 25 25 23 20 19 19 19 19 18 18 18 18 18 18 18 18 18 18 18 18 18 18 18 18 18 18 18 18 18 18 18 18 18 18 18 18 18
28 31 31 31 30 30 29 29 27 26 26 25 24 24 22 20 19 19 19 19 18 18 18 18 18 18 18 18 18 18 18 18 18 18 18 18 18 18 18 18 18 18 18 18 18 18 18 18 18
30 31 31 31 31 31 29 29 28 27 27 25 23 22 21 20 20 20 20 19 19 18 18 18 18 18 18 18 18 18 17 17 17 17 17 17 17 17 18 18 18 18 18 18 18 18 18 18 18
31 31 31 31 30 30 30 29 28 28 28 27 24 22 21 20 20 20 20 20 19 19 18 18 18 18 18 18 18 18 17 17 17 17 17 18 17 18 18 18 18 18 18 18 18 18 18 18 18
31 31 31 31 30 30 30 29 29 28 28 26 24 22 21 21 21 21 20 20 19 19 18 18 18 18 18 18 18 18 18 17 17 18 18 18 18 18 18 18 18 18 18 18 18 18 18 18 18
31 31 31 30 30 29 29 29 29 27 26 25 24 22 22 21 21 21 20 20 19 19 19 18 18 18 18 18 18 18 18 18 18 18 18 18 18 18 18 18 18 18 18 18 18 18 18 18 18
31 31 31 30 30 29 29 29 28 27 25 24 23 23 22 22 21 21 20 20 19 19 18 18 18 18 19 18 18 18 18 18 18 18 18 18 18 18 18 18 18 18 18 18 18 18 18 18 18
31 32 32 31 31 30 30 30 29 27 25 24 23 23 22 22 21 21 20 20 19 19 19 19 19 18 19 18 18 18 18 18 18 18 18 18 18 18 18 18 18 18 18 18 18 18 18 18 18
33 33 32 31 31 30 31 30 29 26 26 25 24 23 22 22 21 21 20 20 20 19 19 19 18 18 19 18 18 18 18 18 18 18 18 18 18 18 18 18 18 18 18 18 18 18 18 18 18
33 32 32 32 31 31 31 30 29 27 27 26 25 24 23 22 22 21 21 20 20 19 19 19 19 19 18 18 18 18 18 18 18 18 18 18 18 18 18 18 18 18 18 18 18 18 18 18 18
32 32 32 32 32 31 31 30 29 27 27 26 25 24 23 23 22 21 21 20 20 20 19 19 19 19 19 18 18 18 18 18 18 18 18 18 18 18 18 18 18 18 18 18 18 18 18 18 18
32 32 32 32 32 31 31 30 29 28 27 27 26 25 24 23 22 22 21 20 20 20 19 19 19 19 19 18 18 18 18 18 18 18 18 18 18 18 18 18 18 18 18 18 17 18 18 18 18
32 32 32 32 32 31 31 30 30 28 27 27 26 25 25 24 23 21 21 20 20 20 20 20 20 19 19 19 19 19 18 18 18 18 18 18 18 18 18 18 18 18 18 17 17 18 18 18 18
32 32 32 31 31 31 31 31 30 29 28 27 26 25 25 24 23 22 21 20 20 20 20 20 20 20 20 19 19 18 18 18 18 18 18 18 18 18 18 18 18 18 17 18 18 18 17 17 17
31 32 32 31 31 32 31 31 30 30 28 28 26 26 25 24 23 22 21 21 21 20 20 20 20 20 20 19 19 19 18 18 18 18 18 18 18 18 18 18 18 18 18 18 17 18 17 17 17
31 32 31 31 31 31 31 31 31 30 29 29 28 26 25 24 24 23 22 21 21 20 20 20 20 20 20 19 19 19 18 18 18 18 18 18 18 18 18 18 18 18 18 18 18 17 17 17 17
31 31 31 31 32 30 31 31 30 31 30 30 29 26 25 25 24 23 22 21 21 21 20 20 20 20 20 20 19 19 19 18 18 18 18 18 18 18 18 18 18 18 18 18 18 17 17 17 17
31 31 30 30 30 30 30 30 30 30 30 29 29 27 25 25 24 23 22 21 21 20 20 20 20 20 20 20 20 19 19 19 18 18 18 18 18 18 18 18 18 18 18 18 17 17 17 17 17
31 31 30 29 30 30 30 30 30 30 29 28 28 27 26 25 24 23 22 21 21 20 20 20 20 20 20 20 20 19 19 19 18 18 18 18 18 18 18 18 18 18 18 18 17 17 17 17 17
31 31 32 31 30 30 30 30 30 30 29 29 28 27 26 25 24 23 23 22 21 21 20 20 20 20 20 20 20 19 19 19 19 18 18 18 18 18 18 18 18 18 18 18 17 17 17 17 17
31 31 31 30 28 29 29 30 30 29 29 29 28 27 25 25 24 23 22 22 21 21 20 20 20 19 19 19 19 19 19 19 19 18 18 18 18 18 18 18 18 18 18 18 18 17 17 17 17
29 30 30 30 29 29 29 30 30 29 29 28 28 26 25 24 24 23 22 21 21 21 20 20 20 19 19 19 19 19 19 19 19 19 19 19 19 18 18 18 18 18 18 18 17 17 17 17 17
30 30 29 29 28 29 29 29 30 29 29 28 27 25 24 24 23 22 22 21 20 20 20 20 20 19 19 19 19 19 19 19 19 19 19 19 19 18 18 18 18 18 18 17 17 17 17 17 17
Wind_Speed
11 9 5 4 3 5 12 9 8 8 7 8 8 7 8 9 7 7 6 7 8 9 11 12 12 13 13 14 14 14 14 15 15 15 15 15 15 15 15 15 15 15 14 14 14 14 15 14 14
8 6 4 4 3 10 11 9 10 9 8 7 7 7 8 9 8 8 7 8 8 9 11 12 13 13 13 14 14 14 14 15 14 14 14 14 14 14 14 14 14 14 14 13 13 13 13 14 14
6 5 3 1 9 11 10 9 9 9 7 5 5 7 6 6 7 6 9 9 9 10 12 14 13 13 13 14 14 14 14 14 14 13 13 13 13 13 13 13 13 13 12 12 13 13 12 12 12
4 4 2 5 13 12 9 8 7 8 7 5 6 8 6 6 5 8 11 10 10 10 12 14 12 13 13 14 14 14 14 14 13 12 12 12 12 12 12 12 12 11 11 11 12 12 11 11 11
4 2 4 10 12 10 9 7 6 6 6 7 7 9 8 7 9 12 11 10 10 10 11 14 13 13 13 14 14 13 13 13 12 12 12 12 12 11 11 10 10 10 10 10 11 10 9 9 9
3 1 6 11 12 9 8 6 6 8 8 7 7 9 7 8 10 11 11 10 10 10 11 13 13 12 13 13 13 12 12 11 11 11 11 11 10 10 10 9 9 9 9 9 9 9 8 8 8
3 4 8 10 10 9 7 5 5 7 8 6 6 7 8 10 10 10 11 10 9 10 10 10 11 12 12 12 12 11 11 10 10 10 10 9 9 9 9 9 8 9 9 8 8 8 7 7 8
3 2 8 9 9 9 6 5 5 6 7 7 4 6 8 12 11 11 11 10 9 9 8 9 9 10 10 11 11 10 10 9 9 9 9 9 9 9 8 9 8 8 7 7 7 6 7 7 7
3 3 9 9 7 7 6 5 5 5 8 6 5 7 12 16 13 12 10 9 9 8 7 7 7 7 7 9 10 10 10 9 9 9 9 7 7 8 8 9 8 7 6 6 6 5 6 7 9
2 6 9 6 5 5 5 4 5 6 8 8 9 12 16 15 13 12 11 10 9 9 8 6 6 6 6 6 7 6 7 7 6 6 6 6 5 5 7 9 7 6 6 6 5 4 7 7 6
3 6 6 4 4 3 4 5 4 4 5 6 11 16 17 15 13 11 10 9 9 9 7 7 6 5 5 4 5 4 5 5 6 6 5 5 5 5 6 6 7 6 6 5 6 5 3 2 2
3 5 4 4 3 3 3 4 4 3 5 7 12 17 17 15 13 11 10 9 8 8 7 6 6 5 4 4 4 4 4 4 4 5 4 4 4 3 4 3 4 4 3 3 2 2 2 2 2
3 5 5 4 3 4 4 3 3 4 5 9 13 16 16 14 12 10 9 9 8 8 7 6 6 5 4 4 3 4 4 4 4 4 4 3 3 3 3 3 2 2 2 3 2 2 1 1 2
4 3 4 5 5 5 4 4 3 4 8 12 14 15 14 13 12 11 10 9 8 8 7 6 6 5 4 4 3 3 4 4 3 3 4 3 3 3 3 2 2 1 1 1 1 1 1 1 0
0 2 4 5 3 3 3 4 3 5 9 11 12 12 12 12 11 11 11 10 9 8 7 6 6 6 5 4 4 3 4 4 3 3 3 3 3 3 2 2 2 1 1 1 1 1 1 1 1
3 2 2 4 2 2 3 3 6 6 9 10 11 11 11 11 11 10 10 9 9 8 8 7 6 7 6 5 4 3 4 4 3 3 3 3 3 3 2 2 1 1 1 1 1 1 1 0 0
2 1 2 3 2 0 2 2 5 6 7 9 10 10 11 11 11 11 11 10 9 9 8 8 6 6 7 6 5 4 4 3 3 3 3 3 3 3 3 2 1 1 1 1 1 0 1 0 1
2 3 2 2 2 1 2 1 3 5 6 7 8 9 10 10 11 11 11 11 10 9 9 8 8 7 6 6 5 4 4 4 4 4 3 3 3 4 3 3 2 2 1 1 0 0 0 1 1
3 4 4 3 2 2 2 1 2 4 5 6 7 8 9 9 9 10 11 11 10 10 9 9 9 8 7 5 5 5 5 4 3 4 4 4 4 4 3 2 2 2 2 1 2 1 1 1 0
4 4 3 2 2 2 2 1 2 4 5 5 6 7 8 8 9 10 11 11 11 11 11 10 10 9 8 7 5 5 4 4 4 3 4 5 5 5 5 4 3 3 3 3 3 2 2 1 1
5 5 5 4 3 4 4 3 3 4 5 4 5 5 6 8 10 11 11 12 12 12 12 10 10 10 9 8 6 5 4 4 4 4 4 5 5 5 4 4 4 4 4 3 3 3 3 2 2
6 4 5 5 6 4 5 4 2 4 5 5 5 6 6 8 10 10 12 12 12 12 11 11 10 10 9 9 8 8 6 5 5 4 4 4 5 5 5 5 5 4 4 3 5 4 3 3 3
5 4 5 7 7 7 5 6 1 4 3 5 6 6 6 7 9 10 11 11 11 11 11 10 10 9 9 9 9 9 8 6 5 5 5 5 5 5 5 5 5 5 5 4 4 3 4 4 4
5 5 6 8 8 8 5 6 2 0 2 2 3 5 6 7 8 9 9 9 9 10 10 10 10 10 10 10 10 10 9 8 7 6 6 5 5 5 6 6 5 5 5 5 5 5 6 5 4
7 8 7 7 7 5 1 5 2 2 2 3 1 3 5 6 7 8 9 8 8 9 10 10 11 10 10 10 10 11 11 10 9 8 7 6 5 5 6 6 5 5 5 5 5 6 5 5 5
7 9 8 8 7 5 4 5 1 2 2 1 1 2 4 5 6 7 8 8 8 9 10 10 10 10 11 10 10 10 10 9 8 9 8 7 6 5 5 6 6 6 6 7 6 6 6 5 6
8 8 9 10 11 10 6 4 3 2 1 2 2 3 3 4 5 6 7 7 8 8 9 9 9 10 10 10 10 10 10 10 9 8 9 8 6 6 6 6 7 7 7 7 7 6 6 5 6
7 7 7 9 9 10 9 8 5 3 1 1 1 2 2 2 4 5 5 6 6 6 7 8 8 9 9 10 9 9 10 10 10 9 9 8 7 7 7 7 7 7 7 7 7 7 6 7 7
7 8 7 8 9 11 10 5 1 1 1 1 1 2 2 1 2 3 4 4 5 5 5 6 6 7 8 8 8 9 9 9 10 9 10 9 8 8 8 8 8 8 8 8 8 8 7 8 8
8 9 9 9 9 10 11 6 2 1 0 1 2 2 2 2 1 3 4 4 4 4 4 4 5 5 6 7 8 9 9 9 10 10 10 10 10 10 9 9 9 9 9 8 9 9 8 9 8
Wind_Direction
178 180 202 230 220 83 68 66 74 79 74 66 65 61 59 45 40 82 96 101 105 107 110 112 108 111 113 113 113 114 114 114 113 111 111 112 114 114 114 113 112 112 111 111 113 114 115 115 117
170 180 224 241 56 78 70 70 76 73 88 95 78 73 72 65 64 96 109 111 113 109 109 105 107 112 114 114 114 114 113 114 114 113 114 115 114 113 114 112 111 110 110 111 113 115 115 115 116
176 219 264 46 59 64 73 75 84 92 96 92 84 67 62 74 87 100 111 122 115 105 105 103 107 110 114 115 115 114 112 113 114 116 116 115 114 113 112 112 113 114 115 117 118 118 118 118 119
210 227 231 69 71 64 74 86 99 104 96 87 96 85 77 69 91 107 119 122 113 109 109 106 107 109 110 113 115 115 114 114 114 118 119 116 115 113 110 111 114 118 120 120 121 121 121 121 122
243 265 88 79 73 71 76 88 100 92 89 93 95 95 90 88 105 116 121 119 115 110 107 109 109 111 112 112 115 117 118 117 118 118 121 120 118 116 113 112 114 117 122 123 123 123 124 126 126
265 327 67 75 77 79 79 88 97 92 95 101 104 103 92 116 121 122 120 116 113 111 109 111 114 113 113 113 112 115 117 118 120 121 119 120 119 118 119 118 117 118 121 127 129 127 128 130 131
335 42 66 76 81 81 79 88 87 93 98 99 110 104 116 129 124 124 121 115 112 111 112 114 119 120 120 118 116 118 118 118 121 124 123 124 124 123 123 123 122 121 123 128 130 134 136 136 138
309 29 76 77 78 81 94 101 88 90 95 107 118 111 131 137 133 128 123 119 115 114 114 116 121 123 128 126 124 124 124 122 123 123 125 128 134 136 138 137 125 126 128 131 131 137 143 148 147
276 59 67 65 71 85 111 111 101 99 112 110 96 97 124 136 139 137 131 126 123 122 122 122 123 127 127 126 129 134 135 134 141 134 137 155 142 136 142 115 123 128 134 134 130 140 154 166 165
333 53 55 47 56 86 117 115 124 132 125 123 117 116 130 142 149 149 144 141 139 136 134 130 130 132 132 129 131 140 140 139 139 128 139 140 126 124 121 125 132 132 140 144 139 158 185 200 164
28 42 43 55 59 96 123 125 133 128 124 141 146 144 147 153 158 156 149 147 143 142 140 138 135 137 136 131 137 135 130 132 136 132 137 131 140 135 131 135 143 149 164 152 152 182 170 147 122
47 41 30 50 76 114 119 117 114 100 73 117 144 150 155 162 164 161 156 153 149 147 149 146 142 141 137 133 137 146 146 144 139 138 153 144 134 130 122 133 135 154 148 138 152 139 123 120 158
56 41 49 66 100 112 117 115 102 91 104 127 142 153 161 165 165 163 159 159 160 162 161 153 151 150 146 143 151 144 148 148 139 142 150 155 148 142 137 134 141 156 137 159 161 160 155 191 194
35 45 72 88 107 120 119 117 123 104 129 142 152 161 166 168 169 166 170 173 173 172 169 162 164 161 158 156 153 147 151 150 147 151 147 164 151 139 151 153 156 155 172 152 177 165 189 239 224
221 138 115 95 99 116 153 120 103 126 145 153 160 166 168 173 176 178 179 180 178 174 174 171 173 169 169 170 163 156 156 154 155 150 152 170 166 150 169 156 176 164 181 169 213 191 208 217 182
218 224 111 100 106 138 243 64 95 138 158 162 166 169 173 179 185 184 182 183 178 176 175 178 179 174 174 179 178 171 168 163 170 171 168 178 181 179 198 180 174 151 190 201 216 238 224 234 276
213 336 33 98 114 228 258 39 112 151 166 168 173 176 180 183 190 188 186 185 181 181 179 180 185 184 183 182 184 185 175 178 188 190 185 174 185 188 205 188 138 194 198 215 263 57 304 262 299
340 336 347 355 55 277 267 31 128 161 174 174 179 182 188 192 193 190 189 186 184 184 185 186 188 193 192 188 184 189 187 188 193 190 184 188 191 198 209 191 175 223 209 205 224 64 331 294 307
310 309 327 2 25 286 287 289 149 160 179 183 190 192 195 197 191 188 188 187 186 188 191 194 197 190 192 192 195 196 198 194 192 189 184 195 210 207 214 221 181 217 212 219 223 211 207 219 215
264 284 313 9 41 296 312 295 148 164 184 191 192 196 199 194 190 189 189 189 192 192 197 197 197 194 196 196 200 203 207 204 201 204 191 203 209 213 205 207 217 213 211 211 212 210 251 252 227
260 291 316 320 300 232 267 219 172 175 185 191 199 200 199 197 196 191 193 195 197 199 199 198 198 196 197 197 195 197 196 207 198 197 198 205 210 214 222 210 223 224 232 220 221 220 226 249 244
259 302 299 286 276 278 277 283 163 184 194 210 217 214 208 204 202 198 196 199 202 202 199 200 200 199 196 197 201 203 203 205 207 202 202 204 212 217 219 218 224 233 239 229 231 218 233 238 251
284 299 280 273 270 271 260 276 203 165 216 226 225 220 216 206 202 199 200 200 202 200 199 197 197 198 197 199 202 207 216 215 211 205 206 216 214 218 221 218 224 230 238 237 242 235 237 237 245
254 249 242 245 255 256 264 273 265 170 299 281 223 214 212 202 197 196 196 195 198 198 199 196 193 197 198 201 206 210 217 218 218 218 218 217 219 215 215 216 219 225 233 228 229 230 228 239 248
240 254 252 246 243 256 231 261 273 20 359 319 275 200 197 195 192 192 192 192 196 197 199 198 194 198 201 203 208 211 215 217 221 227 225 226 226 216 212 217 215 223 226 231 232 231 239 234 237
239 255 263 273 276 274 235 251 222 46 30 7 26 132 166 181 187 190 191 193 197 200 199 198 198 200 202 204 208 212 214 218 222 224 234 228 230 227 214 215 218 221 226 233 232 237 232 228 234
240 246 266 272 274 275 259 250 231 199 136 69 80 96 130 168 180 187 190 192 196 199 199 198 197 201 203 205 207 213 216 222 224 223 226 234 231 228 218 218 220 222 225 232 236 240 239 237 240
254 255 255 261 266 266 258 251 247 234 310 49 68 86 100 151 170 180 186 188 192 195 197 199 200 204 206 206 211 214 218 222 226 229 228 231 232 232 227 221 222 224 224 226 232 238 237 239 243
221 231 247 256 264 268 270 262 61 168 291 334 4 58 81 128 162 170 171 176 182 187 191 196 200 205 208 212 214 222 222 222 224 226 230 229 230 229 229 229 228 228 228 228 230 237 237 239 243
241 242 242 251 255 259 272 267 115 145 259 339 7 45 62 74 131 155 158 161 173 185 192 192 199 209 217 219 219 222 225 226 226 228 230 230 230 231 229 230 230 232 231 229 231 235 235 238 242
Height
1500 1500 1501 1503 1497 1493 1498 1498 1495 1497 1500 1505 1505 1505 1506 1508 1510 1520 1523 1521 1522 1523 1523 1523 1523 1523 1524 1525 1526 1527 1528 1529 1530 1531 1533 1534 1535 1537 1538 1539 1540 1542 1543 1545 1546 1547 1548 1549 1549
1502 1502 1503 1500 1490 1499 1503 1498 1499 1501 1505 1507 1508 1509 1509 1513 1517 1520 1522 1523 1524 1525 1525 1525 1525 1526 1527 1528 1529 1530 1531 1532 1533 1534 1535 1537 1538 1539 1540 1542 1543 1544 1545 1547 1548 1549 1550 1551 1552
1502 1502 1503 1493 1493 1499 1503 1499 1501 1504 1507 1508 1509 1511 1514 1518 1521 1522 1524 1525 1526 1527 1527 1526 1527 1528 1529 1530 1531 1532 1533 1535 1536 1537 1538 1539 1540 1541 1543 1544 1545 1546 1547 1549 1550 1551 1552 1553 1554
1504 1505 1501 1493 1498 1498 1498 1500 1503 1504 1507 1509 1510 1513 1518 1522 1523 1524 1525 1526 1528 1529 1530 1529 1529 1530 1531 1533 1534 1535 1536 1537 1538 1539 1540 1541 1542 1543 1545 1546 1547 1548 1549 1550 1552 1553 1554 1555 1556
1505 1501 1494 1495 1498 1499 1499 1502 1504 1505 1507 1510 1512 1515 1521 1524 1524 1526 1527 1529 1530 1531 1532 1531 1531 1533 1534 1535 1536 1537 1538 1539 1540 1541 1541 1543 1544 1545 1546 1548 1549 1550 1551 1552 1553 1554 1556 1557 1557
1504 1496 1496 1501 1502 1500 1502 1505 1505 1507 1509 1512 1514 1517 1523 1526 1527 1528 1529 1531 1532 1533 1534 1533 1534 1535 1536 1537 1538 1539 1540 1541 1542 1543 1544 1545 1546 1547 1548 1549 1550 1551 1552 1554 1555 1556 1557 1558 1559
1503 1495 1497 1499 1502 1502 1504 1506 1506 1507 1510 1513 1515 1517 1524 1527 1529 1530 1531 1532 1533 1534 1535 1536 1537 1537 1538 1539 1540 1541 1542 1543 1544 1544 1545 1546 1548 1549 1550 1551 1552 1553 1554 1555 1556 1557 1558 1559 1560
1503 1495 1495 1497 1501 1503 1505 1507 1508 1509 1512 1516 1517 1518 1523 1528 1530 1531 1533 1534 1535 1536 1537 1538 1540 1540 1541 1542 1542 1543 1544 1545 1545 1546 1547 1548 1549 1550 1551 1552 1553 1554 1555 1556 1557 1558 1559 1560 1560
1504 1496 1498 1498 1501 1502 1505 1506 1510 1512 1514 1517 1519 1520 1524 1527 1530 1533 1534 1536 1537 1538 1539 1540 1541 1542 1543 1544 1544 1544 1545 1546 1547 1548 1548 1549 1552 1553 1553 1553 1554 1555 1556 1557 1558 1559 1560 1560 1561
1500 1497 1499 1498 1499 1501 1505 1507 1510 1512 1514 1518 1521 1523 1526 1528 1531 1533 1535 1536 1538 1539 1540 1541 1542 1543 1544 1545 1545 1546 1547 1547 1549 1549 1550 1551 1552 1553 1554 1554 1555 1556 1557 1558 1559 1560 1561 1562 1563
1500 1499 1499 1500 1502 1503 1505 1507 1509 1510 1512 1516 1520 1523 1526 1529 1532 1534 1536 1537 1539 1540 1541 1542 1543 1544 1545 1545 1545 1546 1547 1548 1549 1550 1551 1552 1553 1555 1556 1557 1557 1558 1559 1560 1560 1562 1563 1563 1563
1501 1501 1501 1501 1504 1504 1505 1507 1509 1511 1513 1517 1520 1523 1526 1529 1532 1534 1536 1538 1540 1540 1541 1543 1543 1544 1544 1545 1545 1546 1547 1548 1550 1550 1551 1553 1554 1555 1556 1557 1558 1559 1560 1560 1562 1562 1563 1563 1563
1501 1502 1503 1503 1504 1505 1507 1508 1510 1513 1515 1517 1520 1524 1526 1529 1532 1535 1537 1539 1540 1541 1542 1543 1543 1544 1544 1544 1545 1546 1547 1549 1550 1551 1552 1553 1555 1556 1557 1557 1558 1560 1561 1561 1562 1562 1563 1563 1564
1503 1503 1503 1504 1505 1506 1507 1509 1511 1514 1516 1518 1521 1524 1527 1529 1532 1534 1536 1538 1539 1541 1542 1543 1543 1544 1544 1545 1545 1546 1548 1549 1550 1551 1552 1553 1555 1556 1557 1558 1558 1560 1560 1561 1562 1562 1562 1563 1563
1503 1501 1501 1503 1504 1505 1506 1507 1509 1514 1516 1519 1521 1524 1527 1530 1532 1534 1535 1537 1539 1540 1541 1542 1544 1544 1544 1545 1546 1547 1548 1550 1551 1552 1552 1553 1555 1555 1556 1558 1559 1560 1560 1560 1561 1562 1562 1562 1563
1499 1498 1501 1502 1503 1504 1505 1509 1510 1514 1516 1518 1521 1524 1527 1529 1532 1534 1535 1537 1538 1540 1541 1542 1544 1544 1545 1545 1546 1548 1549 1550 1551 1552 1553 1553 1554 1555 1556 1558 1559 1559 1560 1560 1561 1561 1562 1561 1562
1497 1501 1502 1501 1502 1502 1502 1506 1510 1513 1515 1517 1520 1523 1526 1528 1530 1532 1534 1536 1537 1539 1540 1541 1543 1544 1545 1546 1546 1548 1549 1550 1551 1552 1553 1554 1554 1555 1556 1558 1558 1559 1560 1560 1560 1560 1560 1561 1560
1505 1502 1502 1502 1500 1501 1502 1504 1508 1512 1513 1516 1519 1522 1524 1526 1529 1531 1533 1535 1536 1538 1539 1541 1542 1543 1545 1546 1547 1548 1549 1550 1551 1552 1553 1553 1554 1555 1556 1557 1557 1558 1559 1559 1559 1559 1559 1559 1559
1501 1502 1503 1500 1499 1500 1502 1504 1506 1511 1512 1514 1517 1519 1522 1525 1527 1529 1531 1533 1535 1536 1537 1539 1540 1542 1543 1545 1546 1547 1549 1550 1551 1552 1552 1553 1554 1555 1555 1557 1557 1557 1558 1558 1558 1559 1559 1559 1559
1501 1503 1502 1499 1499 1501 1501 1503 1504 1509 1511 1513 1515 1517 1519 1522 1525 1527 1529 1531 1532 1534 1535 1537 1538 1540 1542 1543 1545 1547 1548 1549 1550 1551 1551 1552 1553 1554 1555 1555 1556 1556 1556 1556 1557 1557 1558 1558 1558
1501 1502 1502 1503 1500 1499 1501 1503 1503 1505 1509 1512 1514 1516 1517 1519 1522 1524 1526 1528 1530 1531 1532 1535 1536 1538 1540 1542 1544 1546 1547 1548 1549 1550 1550 1551 1552 1553 1553 1554 1554 1555 1555 1556 1556 1556 1556 1557 1557
1503 1499 1500 1501 1503 1500 1501 1508 1502 1501 1505 1508 1510 1512 1514 1516 1518 1521 1523 1525 1527 1529 1531 1533 1534 1536 1538 1540 1542 1544 1545 1547 1548 1549 1549 1550 1550 1551 1552 1552 1552 1553 1554 1554 1554 1555 1555 1555 1556
1500 1498 1499 1499 1500 1502 1499 1503 1500 1498 1501 1503 1506 1508 1510 1513 1515 1517 1519 1522 1524 1526 1529 1530 1532 1534 1535 1537 1539 1541 1543 1545 1546 1547 1547 1548 1549 1549 1550 1550 1550 1551 1552 1552 1552 1553 1553 1554 1554
1498 1499 1498 1497 1497 1511 1503 1505 1505 1495 1498 1498 1501 1505 1508 1510 1512 1515 1517 1519 1521 1524 1526 1528 1529 1531 1533 1535 1537 1538 1540 1542 1543 1544 1545 1546 1547 1547 1548 1548 1548 1549 1550 1550 1550 1550 1551 1551 1551
1497 1502 1509 1511 1510 1509 1498 1503 1503 1495 1496 1498 1499 1502 1505 1507 1510 1512 1515 1516 1518 1521 1523 1525 1526 1528 1530 1532 1534 1535 1537 1539 1540 1542 1543 1543 1545 1545 1545 1546 1546 1546 1547 1547 1548 1548 1549 1549 1549
1497 1498 1512 1521 1516 1505 1501 1502 1497 1494 1497 1498 1499 1501 1503 1505 1507 1510 1512 1514 1516 1518 1520 1522 1523 1525 1527 1528 1530 1532 1534 1536 1537 1538 1540 1541 1541 1542 1543 1543 1543 1543 1544 1545 1545 1546 1546 1546 1546
1497 1496 1492 1500 1503 1507 1500 1496 1494 1493 1495 1497 1499 1501 1502 1504 1506 1508 1510 1512 1513 1515 1517 1519 1520 1522 1523 1525 1527 1529 1531 1532 1534 1535 1536 1537 1538 1539 1539 1540 1540 1541 1541 1542 1542 1543 1543 1543 1544
1494 1493 1495 1501 1516 1517 1505 1500 1496 1493 1494 1495 1497 1500 1502 1503 1505 1506 1508 1510 1511 1513 1514 1516 1518 1519 1521 1522 1524 1526 1527 1528 1530 1531 1532 1533 1534 1535 1536 1536 1537 1538 1538 1538 1539 1540 1540 1540 1540
1496 1498 1497 1498 1500 1511 1511 1501 1486 1491 1493 1495 1497 1499 1501 1503 1504 1505 1506 1508 1510 1511 1512 1514 1515 1516 1518 1519 1521 1522 1524 1525 1526 1527 1528 1529 1530 1531 1532 1533 1534 1534 1535 1535 1535 1536 1536 1537 1537
1491 1493 1495 1504 1506 1502 1503 1499 1485 1489 1492 1495 1497 1500 1502 1503 1504 1505 1506 1507 1508 1509 1510 1511 1512 1514 1515 1516 1517 1519 1520 1521 1522 1523 1524 1525 1526 1527 1528 1529 1530 1530 1531 1531 1531 1532 1532 1533 1533